Lamar, CO

9:13 PM MDT on September 19, 2017 (GMT -0600)
Lamar Municipal

Weather History for KLAA - April, 2014

Change the Weather History Date:

Tuesday, April 1, 2014

  Actual Average Record
Temperature  
Mean Temperature 49 °F 48 °F  
Max Temperature 72 °F 64 °F 90 °F (1940)
Min Temperature 25 °F 31 °F 13 °F (1992)
Degree Days  
Heating Degree Days 16 17  
Month to date heating degree days 16 17  
Since 1 July heating degree days 4985 5026  
Cooling Degree Days 0 0  
Month to date cooling degree days 0 0  
Year to date cooling degree days 0 0  
Moisture  
Dew Point 21 °F    
Average Humidity 41    
Maximum Humidity 69    
Minimum Humidity 13    
Precipitation  
Precipitation 0.00 in 0.03 in 0.73 in (1988)
Month to date precipitation 0.00 0.03  
Year to date precipitation 0.53  
Sea Level Pressure  
Sea Level Pressure 29.74 in    
Wind  
Wind Speed 19 mph (SSE)    
Max Wind Speed 33 mph    
Max Gust Speed 43 mph    
Visibility 6 miles    
Events      
T = Trace of Precipitation, MM = Missing Value Source: NWS Daily Summary

Daily Weather History Graph

Daily Weather History Graph

Search for Another Location

Airport or City:

Trip Planner

Search our weather history database for the weather conditions in past years. The results will help you decide how hot, cold, wet, or windy it might be!

Date:

Astronomy

Apr. 01, 2014 Rise Set
Actual Time 6:35 AM MDT 7:13 PM MDT
Civil Twilight 6:09 AM MDT 7:40 PM MDT
Nautical Twilight 5:38 AM MDT 8:11 PM MDT
Astronomical Twilight 5:05 AM MDT 8:44 PM MDT
Moon 7:41 AM MDT (4/1) 9:36 PM MDT (4/1)
Length of Visible Light 13h 31m
Length of Day
12h 38m
Waxing Crescent, 5% of the Moon is Illuminated
Apr 1
Waxing Crescent
Apr 7
First Quarter
Apr 15
Full
Apr 22
Last Quarter
Apr 29
New

Hourly Weather History & Observations

Time (MDT) Temp. Windchill Dew Point Humidity Pressure Visibility Wind Dir Wind Speed Gust Speed Precip Events Conditions
12:53 AM 36.0 °F 29.6 °F 21.9 °F 57% 29.98 in 10.0 mi East 8.1 mph - N/A   Clear
1:53 AM 33.1 °F 27.7 °F 21.0 °F 61% 30.00 in 10.0 mi SSE 5.8 mph - N/A   Clear
2:53 AM 33.1 °F 28.7 °F 19.9 °F 59% 29.99 in 10.0 mi SE 4.6 mph - N/A   Clear
3:53 AM 30.9 °F - 19.9 °F 64% 29.99 in 10.0 mi Calm Calm - N/A   Clear
4:53 AM 27.0 °F 23.0 °F 18.0 °F 69% 30.01 in 10.0 mi SW 3.5 mph - N/A   Clear
5:53 AM 28.0 °F 19.3 °F 19.0 °F 69% 29.99 in 10.0 mi South 9.2 mph - N/A   Clear
6:53 AM 28.0 °F 19.3 °F 19.0 °F 69% 29.99 in 10.0 mi SSE 9.2 mph - N/A   Clear
7:53 AM 34.0 °F 25.5 °F 21.0 °F 59% 29.99 in 10.0 mi SSE 11.5 mph - N/A   Clear
8:53 AM 39.9 °F 32.5 °F 21.9 °F 49% 29.96 in 10.0 mi SSE 12.7 mph 21.9 mph N/A   Clear
9:53 AM 44.1 °F 35.4 °F 21.0 °F 40% 29.93 in 8.0 mi SSE 21.9 mph 29.9 mph N/A   Clear
10:53 AM 48.9 °F - 19.9 °F 32% 29.88 in 7.0 mi SSE 25.3 mph 31.1 mph N/A   Scattered Clouds
11:42 AM 54.0 °F - 21.0 °F 28% 29.85 in 4.0 mi South 27.6 mph 35.7 mph N/A   Haze
11:53 AM 55.0 °F - 21.0 °F 27% 29.81 in 4.0 mi South 23.0 mph 34.5 mph N/A   Haze
12:53 PM 60.1 °F - 19.9 °F 21% 29.74 in 4.0 mi South 23.0 mph 34.5 mph N/A   Haze
1:43 PM 63.0 °F - 19.9 °F 19% 29.73 in 2.5 mi SSE 19.6 mph - N/A   Haze
1:51 PM 64.4 °F - 19.4 °F 18% 29.72 in 4.0 mi SSE 21.9 mph 28.8 mph N/A   Haze
1:53 PM 64.9 °F - 19.9 °F 18% 29.67 in 4.0 mi SSE 21.9 mph 28.8 mph N/A   Haze
2:53 PM 68.0 °F - 19.0 °F 15% 29.61 in 6.0 mi South 24.2 mph 32.2 mph N/A   Haze
3:53 PM 70.0 °F - 19.0 °F 14% 29.56 in 6.0 mi SE 23.0 mph 32.2 mph N/A   Haze
4:11 PM 71.1 °F - 18.0 °F 13% 29.60 in 2.5 mi South 24.2 mph 35.7 mph N/A   Haze
4:20 PM 71.1 °F - 17.1 °F 13% 29.59 in 4.0 mi South 24.2 mph 36.8 mph N/A   Haze
4:53 PM 71.1 °F - 18.0 °F 13% 29.53 in 4.0 mi South 29.9 mph 40.3 mph N/A   Haze
5:39 PM 69.1 °F - 19.0 °F 15% 29.58 in 2.5 mi South 26.5 mph 36.8 mph N/A   Haze
5:53 PM 68.0 °F - 19.0 °F 15% 29.54 in 2.5 mi SSE 28.8 mph 39.1 mph N/A   Haze
6:23 PM 66.0 °F - 19.0 °F 17% 29.58 in 2.0 mi SSE 25.3 mph 35.7 mph N/A   Haze
6:33 PM 66.0 °F - 19.0 °F 17% 29.59 in 4.0 mi SSE 24.2 mph 34.5 mph N/A   Haze
6:40 PM 64.9 °F - 19.0 °F 17% 29.58 in 5.0 mi SE 25.3 mph 34.5 mph N/A   Haze
6:53 PM 64.0 °F - 19.0 °F 18% 29.56 in 6.0 mi East 18.4 mph 26.5 mph N/A   Haze
7:02 PM 60.1 °F - 23.0 °F 24% 29.60 in 6.0 mi East 26.5 mph 32.2 mph N/A   Haze
7:53 PM 54.0 °F - 27.0 °F 35% 29.59 in 8.0 mi East 27.6 mph 40.3 mph N/A   Clear
8:53 PM 53.1 °F - 27.0 °F 37% 29.62 in 7.0 mi ESE 31.1 mph 38.0 mph N/A   Clear
9:53 PM 48.0 °F - 28.9 °F 48% 29.65 in 8.0 mi ESE 26.5 mph 34.5 mph N/A   Clear
10:53 PM 44.1 °F 35.2 °F 28.9 °F 55% 29.64 in 8.0 mi East 23.0 mph 28.8 mph N/A   Clear
11:53 PM 42.1 °F 33.3 °F 28.9 °F 60% 29.64 in 8.0 mi East 19.6 mph 29.9 mph N/A   Clear